Regional Weather Roundup
Issued by NWS Boston, MA

Current Version | Previous Version | Text Only | Print | Product List | Glossary Off
Versions: 1 2 3 4 5 6 7 8 9 10 11 12 13 14 15 16 17 18 19 20 21 22 23 24 25 26 27 28 29 30 31 32 33 34 35 36 37 38 39 40 41 42 43 44 45 46 47 48 49 50
000 ASUS41 KBOX 270310 RWRBOX REGIONAL WEATHER ROUNDUP NATIONAL WEATHER SERVICE BOSTON/NORTON MA 1100 PM EDT SAT MAY 26 2018 NOTE: "FAIR" INDICATES FEW OR NO CLOUDS BELOW 12,000 FEET WITH NO SIGNIFICANT WEATHER AND/OR OBSTRUCTIONS TO VISIBILITY. MAZALL-270400- EASTERN MASSACHUSETTS CITY SKY/WX TMP DP RH WIND PRES REMARKS BOSTON CLOUDY 61 59 93 NE6 29.97R BEVERLY MOCLDY 65 62 90 N7 29.96R LAWRENCE LGT RAIN 67 62 84 NE9 29.99R BEDFORD FAIR 67 61 81 NE5 29.96R BLUE HILL N/A 63 60 90 NE10G20 29.96R NORWOOD FAIR 68 61 78 E5 29.96R MARSHFIELD FAIR 63 57 82 NE5 29.96R PLYMOUTH FAIR 64 57 78 NE9 29.95R TAUNTON FAIR 69 58 67 NE7 29.94R NEW BEDFORD FAIR 68 58 70 NE10 29.93R $$ MAZALL-270400- CAPE COD AND THE ISLANDS CITY SKY/WX TMP DP RH WIND PRES REMARKS FALMOUTH FAIR 66 59 77 E9 29.93R HYANNIS FAIR 69 58 67 E10 29.90R CHATHAM FAIR 63 57 81 E10 29.93R PROVINCETOWN FAIR 58 54 86 NE8 29.95R NANTUCKET FAIR 58 58 100 SW6 29.92S MARTHAS VNYRD FAIR 63 60 90 NE6 29.91R $$ MAZALL-270400- CENTRAL AND WESTERN MASSACHUSETTS CITY SKY/WX TMP DP RH WIND PRES REMARKS WORCESTER FAIR 66 60 81 NE12 29.98R FITCHBURG MOCLDY 67 65 93 CALM 29.98R ORANGE FAIR 70 62 76 VRB3 29.97R SPRINGFIELD MOCLDY 72 59 64 NE10 29.93R WESTFIELD FAIR 73 59 61 NE13G23 29.93R NORTH ADAMS MOCLDY 70 62 76 E13 29.94R PITTSFIELD MOCLDY 70 60 70 N9 29.94R $$ RIZALL-270400- RHODE ISLAND CITY SKY/WX TMP DP RH WIND PRES REMARKS PROVIDENCE CLOUDY 70 58 65 NE12 29.94R NEWPORT FAIR 69 61 75 N10 29.91R BLOCK ISLAND FAIR 61 59 93 CALM 29.91R SMITHFIELD FAIR 67 60 78 MISG 29.96R WESTERLY FAIR 69 66 90 CALM 29.90R $$ CTZALL-270400- CONNECTICUT CITY SKY/WX TMP DP RH WIND PRES REMARKS BRADLEY INTL MOCLDY 76 60 57 N14 29.89R HARTFORD FAIR 78 68 71 N3 29.88R BRIDGEPORT FAIR 73 66 78 CALM 29.87R DANBURY FAIR 69 62 78 CALM 29.89S GROTON FAIR 64 63 96 CALM 29.87R NEW HAVEN FAIR 71 66 84 S3 29.87R CHESTER FAIR 73 68 83 CALM 29.89R MERIDEN FAIR 72 67 84 CALM 29.87R WILLIMANTIC FAIR 73 59 61 NE10 29.92R OXFORD FAIR 70 64 81 CALM 29.91R $$ MEZ002-015-021-024-NHZ003-005-008-011-012-014-VTZ005-008-270400- NORTHERN NEW ENGLAND CITY SKY/WX TMP DP RH WIND PRES REMARKS PORTLAND ME MOCLDY 65 64 97 NE9 29.99R BANGOR ME MOCLDY 59 38 45 NE6 30.05R CONCORD NH CLOUDY 66 61 84 SE6 29.98R MANCHESTER NH CLOUDY 71 63 75 E6 29.96R NASHUA NH CLOUDY 69 65 86 E6 29.98R PORTSMOUTH NH LGT RAIN 65 64 95 CALM 29.97R FOG JAFFREY NH LGT RAIN 67 64 90 CALM 29.99R KEENE NH MOCLDY 69 62 78 NE5 29.97R BURLINGTON VT CLOUDY 63 60 90 CALM 29.96R MT. WASHINGTON FOG 41 41 100 SE14 N/A VSB 0 $$ NYZ052-076-270400- EASTERN NEW YORK CITY SKY/WX TMP DP RH WIND PRES REMARKS ALBANY CLOUDY 69 59 70 N12 29.91S NEW YORK CITY MOCLDY 80 64 58 CALM 29.85S $$ ANZALL-270400- MARINE OBSERVATIONS STATION/POSITION TIME TEMP WIND PRES VSBY WAVE AIR SEA DIR/SP/G HT/PER (UTC) (F) (DEG/KT/KT) (MB) (MI) (FT/S) BOSTON BUOY 0250 60 57 60/ 8/ 10 1014.0R 1/ 3 BUZZARDS BAY 0200 60 310/ 6/ 6 1012.7R NANTUCKET SOUND 0250 59 59 80/ 4/ 6 1012.9R 1/ 4 MASS BAY-STELLWA 0204 58 55 1011.9R 1/ 3 ISLE OF SHOALS 0200 61 40/ 15/ 17 1013.5R S OF BLOCK IS 0243 54 N/A 3/ 6 $$ ......................KEY......................... SKY/WX - SKY CONDITION/PRESENT WEATHER TMP - TEMPERATURE IN FAHRENHEIT DWPT - DEWPOINT IN FAHRENHEIT RH - RELATIVE HUMIDITY IN PERCENT WIND - DIRECTION AND SPEED IN MPH PRES - MEAN SEA LEVEL PRESSURE IN INCHES OF HG WCI - WIND CHILL INDEX VSB - VISIBILITY IN MILES HX - HEAT INDEX TC - TEMPERATURE IN CELSIUS VRB - VARIABLE WIND DIRECTION N/A - NOT AVAILABLE

USA.gov is the U.S. government's official web portal to all federal, state and local government web resources and services.